Waarnemingen

Advertentie
Mijn weer
Decimomannu, Italië (16546): temperatuur & dauwpunt: 08.08.2018 15:00:00 - 14.08.2018 15:00:00 (CEST)Decimomannu, Italië (16546): windsnelheid: 08.08.2018 15:00:00 - 14.08.2018 15:00:00 (CEST)Decimomannu, Italië (16546): windrichting: 08.08.2018 15:00:00 - 14.08.2018 15:00:00 (CEST)Decimomannu, Italië (16546): luchtdruk: 08.08.2018 15:00:00 - 14.08.2018 15:00:00 (CEST)Decimomannu, Italië (16546): zicht: 08.08.2018 15:00:00 - 14.08.2018 15:00:00 (CEST)
Datum & Tijd tt [°C] td [°C] ff [km/u] ff [kn] dd ppp [hPa] vv [km]
14.08.2018 15:00:00 30,0 26,0 31 17 NNW - 10
14.08.2018 14:00:00 32,2 22,0 24 13 NNW 1011,6 20
14.08.2018 13:00:00 31,0 20,0 28 15 NW - 10
14.08.2018 12:00:00 31,0 22,0 21 11 NNW - 10
14.08.2018 11:00:00 28,8 23,2 22 12 NNW 1013,1 20
14.08.2018 10:00:00 27,0 23,0 26 14 NNW - 10
14.08.2018 09:00:00 24,0 22,0 13 7 NNW - 10
14.08.2018 08:00:00 21,2 19,5 8 4 NNW 1012,8 15
14.08.2018 07:00:00 20,0 19,0 5 3 N - 10
14.08.2018 06:00:00 20,0 19,0 5 3 NW - 10
14.08.2018 05:00:00 20,8 19,5 8 4 N 1012,7 15
14.08.2018 04:00:00 21,0 20,0 8 4 NNW - 10
14.08.2018 03:00:00 23,0 22,0 8 4 NNW - 10
14.08.2018 02:00:00 23,6 22,8 9 5 NNW 1012,8 15
14.08.2018 01:00:00 24,0 24,0 5 3 N - 10
14.08.2018 00:00:00 25,0 25,0 11 6 N - 10
13.08.2018 23:00:00 25,0 24,0 4 2 N 1012,3 16
13.08.2018 22:00:00 27,0 24,0 2 1 OZO - 10
13.08.2018 21:00:00 28,0 26,0 8 4 N - 10
13.08.2018 20:00:00 28,6 26,8 15 8 ZZO 1012,1 20
13.08.2018 19:00:00 29,0 27,0 15 8 ZZO - 10
13.08.2018 18:00:00 29,0 28,0 16 9 ZZO - 10
13.08.2018 17:00:00 31,6 24,2 22 12 ZZO 1011,7 20
13.08.2018 16:00:00 33,0 25,0 24 13 ZZO - 10
13.08.2018 15:00:00 35,0 25,0 24 13 ZZO - 10
13.08.2018 14:00:00 35,0 24,3 16 9 ZO 1013,2 30
13.08.2018 13:00:00 35,0 21,0 16 9 ZZO - 10
13.08.2018 12:00:00 34,0 22,0 15 8 ZZO - 10
13.08.2018 11:00:00 31,8 23,1 13 7 ZO 1013,9 30
13.08.2018 10:00:00 29,0 23,0 5 3 ZO - 10
13.08.2018 09:00:00 25,0 21,0 2 1 NNW - 10
13.08.2018 08:00:00 22,0 19,4 4 2 NNW 1014,1 20
13.08.2018 07:00:00 19,0 17,0 5 3 N - 10
13.08.2018 06:00:00 19,0 17,0 4 2 NNW - 10
13.08.2018 05:00:00 20,0 18,3 5 3 NNO 1013,8 15
13.08.2018 04:00:00 20,0 18,0 4 2 N - 10
13.08.2018 03:00:00 21,0 20,0 4 2 WNW - 10
13.08.2018 02:00:00 21,4 20,2 4 2 WNW 1014,9 10
13.08.2018 01:00:00 22,0 21,0 8 4 N - 10
13.08.2018 00:00:00 23,0 22,0 8 4 NNW - 10
12.08.2018 23:00:00 24,4 22,3 8 4 N 1015,2 20
12.08.2018 22:00:00 26,0 19,0 9 5 N - 10
12.08.2018 21:00:00 27,0 19,0 9 5 N - 10
12.08.2018 20:00:00 29,0 23,0 8 4 O 1014,3 20
12.08.2018 19:00:00 31,0 22,0 9 5 ZO - 10
12.08.2018 18:00:00 33,0 20,0 15 8 OZO - 10
12.08.2018 17:00:00 34,0 19,7 15 8 ZO 1015,5 25
12.08.2018 16:00:00 34,0 19,0 18 10 ZZO - 10
12.08.2018 15:00:00 35,0 22,0 16 9 Z - 10
12.08.2018 14:00:00 33,6 15,1 9 5 WZW 1016,4 25
12.08.2018 13:00:00 28,0 11,0 5 3 ZZW - 10
12.08.2018 12:00:00 31,0 18,0 8 4 NW - 10
12.08.2018 11:00:00 28,6 19,0 15 8 NW 1017,3 25
12.08.2018 10:00:00 26,0 20,0 13 7 NNW - 10
12.08.2018 09:00:00 25,0 21,0 18 10 NNW - 10
12.08.2018 08:00:00 20,6 18,5 4 2 NNW 1017,5 20
12.08.2018 07:00:00 19,0 17,0 8 4 NNW - 10
12.08.2018 06:00:00 20,0 18,0 8 4 NW - 10
12.08.2018 05:00:00 20,4 18,7 8 4 WNW 1016,8 20
12.08.2018 04:00:00 21,0 19,0 8 4 NW - 10
12.08.2018 03:00:00 22,0 21,0 9 5 NW - 10
12.08.2018 02:00:00 23,0 21,6 11 6 N 1017,1 20
12.08.2018 01:00:00 24,0 22,0 13 7 N - 10
12.08.2018 00:00:00 24,0 22,0 11 6 N - 10
11.08.2018 23:00:00 24,8 23,0 16 9 N 1017,7 20
11.08.2018 22:00:00 26,0 21,0 11 6 N - 10
11.08.2018 21:00:00 27,0 22,0 22 12 NNW - 10
11.08.2018 20:00:00 29,0 20,5 26 14 NNW 1016,6 20
11.08.2018 19:00:00 31,0 17,0 24 13 NNW - 10
11.08.2018 18:00:00 33,0 17,0 26 14 NW - 10
11.08.2018 17:00:00 34,0 15,5 26 14 NNW 1017,4 15
11.08.2018 16:00:00 35,0 16,0 21 11 NNW - 10
11.08.2018 15:00:00 34,0 14,0 15 8 NNW - 10
11.08.2018 14:00:00 34,6 15,5 15 8 NW 1018,6 20
11.08.2018 13:00:00 33,0 16,0 15 8 NNW - 10
11.08.2018 12:00:00 31,0 20,0 11 6 WNW - 10
11.08.2018 11:00:00 29,8 23,2 11 6 NW 1019,7 15
11.08.2018 10:00:00 28,0 24,0 9 5 NW - 10
11.08.2018 09:00:00 24,0 22,0 9 5 NW - 10
11.08.2018 08:00:00 22,0 20,1 5 3 NNW 1019,5 12
11.08.2018 07:00:00 21,0 20,0 8 4 N - 10
11.08.2018 06:00:00 22,0 20,0 4 2 N - 10
11.08.2018 05:00:00 22,0 20,7 4 2 NW 1019,6 10
11.08.2018 04:00:00 22,0 21,0 8 4 NNW - 10
11.08.2018 03:00:00 23,0 21,0 4 2 N - 10
11.08.2018 02:00:00 24,4 22,5 4 2 NO 1020,3 10
11.08.2018 01:00:00 25,0 24,0 5 3 NO - 10
11.08.2018 00:00:00 25,0 24,0 5 3 O - 10
10.08.2018 23:00:00 25,6 24,2 9 5 O 1020,0 10
10.08.2018 22:00:00 27,0 25,0 5 3 OZO - 10
10.08.2018 21:00:00 27,0 26,0 9 5 ZO - 10
10.08.2018 20:00:00 29,2 26,4 13 7 ZO 1019,0 20
10.08.2018 19:00:00 31,0 26,0 15 8 ZZO - 10
10.08.2018 18:00:00 32,0 25,0 22 12 ZO - 10
10.08.2018 17:00:00 33,0 25,3 18 10 ZO 1018,6 20
10.08.2018 16:00:00 34,0 25,0 22 12 ZO - 10
10.08.2018 15:00:00 35,0 21,0 18 10 ZZO - 10
10.08.2018 14:00:00 34,4 19,6 5 3 ZW 1018,5 20
10.08.2018 13:00:00 33,0 21,0 5 3 O - 10
10.08.2018 12:00:00 31,0 21,0 5 3 O - 10
10.08.2018 11:00:00 30,0 22,7 8 4 N 1019,8 20
10.08.2018 10:00:00 28,0 23,0 8 4 NNW - 10
10.08.2018 09:00:00 26,0 23,0 4 2 N - 10
10.08.2018 08:00:00 22,0 20,1 8 4 NO 1018,7 10
10.08.2018 07:00:00 22,0 20,0 5 3 NNO - 10
10.08.2018 06:00:00 22,0 20,0 8 4 NW - 10
10.08.2018 05:00:00 22,4 20,7 2 1 O 1017,7 12
10.08.2018 04:00:00 23,0 21,0 5 3 ONO - 10
10.08.2018 03:00:00 24,0 22,0 9 5 NNO - 10
10.08.2018 02:00:00 24,0 22,3 11 6 NNW 1018,2 12
10.08.2018 01:00:00 24,0 23,0 9 5 N - 10
10.08.2018 00:00:00 25,0 23,0 9 5 N - 10
09.08.2018 23:00:00 25,2 23,8 5 3 NNO 1017,6 10
09.08.2018 22:00:00 26,0 24,0 5 3 NNW - 10
09.08.2018 21:00:00 26,0 25,0 8 4 OZO - 10
09.08.2018 20:00:00 28,0 26,2 13 7 ZZO 1015,9 25
09.08.2018 19:00:00 29,0 25,0 16 9 ZZO - 10
09.08.2018 18:00:00 30,0 25,0 26 14 ZZO - 10
09.08.2018 17:00:00 30,4 23,8 21 11 ZZO 1015,4 20
09.08.2018 16:00:00 31,0 24,0 24 13 ZZO - 10
09.08.2018 15:00:00 31,0 24,0 26 14 ZZO - 10
09.08.2018 14:00:00 32,0 24,9 22 12 ZZO 1015,6 20
09.08.2018 13:00:00 31,0 27,0 16 9 ZZO - 10
09.08.2018 12:00:00 30,0 24,0 9 5 ZZO - 10
09.08.2018 11:00:00 28,8 24,6 8 4 OZO 1016,0 15
09.08.2018 10:00:00 27,0 24,0 4 2 - - 10
09.08.2018 09:00:00 25,0 22,0 0 0 N - 10
09.08.2018 08:00:00 21,2 19,1 4 2 NO 1015,9 10
09.08.2018 07:00:00 20,0 18,0 5 3 N - 10
09.08.2018 06:00:00 20,0 19,0 2 1 NW - 10
09.08.2018 05:00:00 20,8 19,1 8 4 NO 1015,5 15
09.08.2018 04:00:00 21,0 19,0 8 4 NO - 10
09.08.2018 03:00:00 22,0 21,0 4 2 N - 10
09.08.2018 02:00:00 22,6 20,9 5 3 OZO 1015,7 15
09.08.2018 01:00:00 23,0 22,0 9 5 O - 10
09.08.2018 00:00:00 24,0 23,0 8 4 O - 10
08.08.2018 23:00:00 24,6 23,2 5 3 ZO 1015,5 15
08.08.2018 22:00:00 25,0 24,0 8 4 ZO - 10
08.08.2018 21:00:00 26,0 24,0 11 6 ZO - 10
08.08.2018 20:00:00 27,0 24,5 15 8 ZO 1014,3 20
08.08.2018 19:00:00 29,0 24,0 16 9 ZZO - 10
08.08.2018 18:00:00 30,0 24,0 16 9 ZZO - 10
08.08.2018 17:00:00 30,0 25,1 16 9 ZO 1013,9 25
08.08.2018 16:00:00 30,0 24,0 21 11 ZZO - 10
08.08.2018 15:00:00 32,0 25,0 21 11 ZZO - 10

tt = temperatuur
td = dauwpunt
ff = windsnelheid
dd = windrichting
ppp = luchtdruk
vv = zicht

Weerstations in de omgeving